Weather History for KMYV - March, 2014

Change the Weather History Date:

Thursday, March 20, 2014

  Actual Average Record
Temperature  
Mean Temperature 60 °F -  
Max Temperature 77 °F 69 °F - (-1)
Min Temperature 46 °F 44 °F - (-1)
Degree Days  
Heating Degree Days 4    
Growing Degree Days 10 (Base 50)    
Moisture  
Dew Point 43 °F    
Average Humidity 57    
Maximum Humidity 86    
Minimum Humidity 23    
Precipitation  
Precipitation 0.00 in - - ()
Sea Level Pressure  
Sea Level Pressure 30.00 in    
Wind  
Wind Speed 3 mph (North)    
Max Wind Speed 8 mph    
Max Gust Speed -    
Visibility 10 miles    
Events      
Averages and records for this station are not official NWS values.
T = Trace of Precipitation, MM = Missing Value Source: NWS Daily Summary

Daily Weather History Graph

Daily Weather History Graph

Search for Another Location

Airport or City:

Trip Planner

Search our weather history database for the weather conditions in past years. The results will help you decide how hot, cold, wet, or windy it might be!

Date:

Astronomy

Mar. 20, 2014 Rise Set
Actual Time 7:09 AM PDT 7:18 PM PDT
Civil Twilight 6:42 AM PDT 7:45 PM PDT
Nautical Twilight 6:11 AM PDT 8:16 PM PDT
Astronomical Twilight 5:40 AM PDT 8:48 PM PDT
Moon 11:41 PM PDT (3/20) 9:21 AM PDT (3/20)
Length of Visible Light 13h 02m
Length of Day
12h 08m
Waning Gibbous, 83% of the Moon is Illuminated
Mar 20
Waning Gibbous
Mar 23
Last Quarter
Mar 30
New
Apr 7
First Quarter
Apr 15
Full

Hourly Weather History & Observations

Time (PDT) Temp. Dew Point Humidity Pressure Visibility Wind Dir Wind Speed Gust Speed Precip Events Conditions
12:53 AM 53.1 °F 44.1 °F 71% 30.05 in 10.0 mi Calm Calm - N/A   Clear
1:53 AM 51.1 °F 44.1 °F 77% 30.06 in 10.0 mi East 5.8 mph - N/A   Clear
2:53 AM 52.0 °F 44.1 °F 74% 30.06 in 10.0 mi East 4.6 mph - N/A   Clear
3:53 AM 50.0 °F 44.1 °F 80% 30.04 in 10.0 mi East 5.8 mph - N/A   Clear
4:53 AM 48.0 °F 43.0 °F 83% 30.05 in 10.0 mi Calm Calm - N/A   Clear
5:53 AM 46.9 °F 43.0 °F 86% 30.05 in 10.0 mi Calm Calm - N/A   Clear
6:53 AM 46.9 °F 42.1 °F 83% 30.05 in 10.0 mi WNW 3.5 mph - N/A   Clear
7:53 AM 48.9 °F 45.0 °F 86% 30.06 in 10.0 mi NNW 5.8 mph - N/A   Clear
8:53 AM 54.0 °F 44.1 °F 69% 30.06 in 10.0 mi North 5.8 mph - N/A   Clear
9:53 AM 59.0 °F 44.1 °F 58% 30.07 in 10.0 mi North 5.8 mph - N/A   Clear
10:53 AM 64.9 °F 44.1 °F 47% 30.06 in 10.0 mi NNW 8.1 mph - N/A   Clear
11:53 AM 68.0 °F 44.1 °F 42% 30.05 in 10.0 mi WNW 6.9 mph - N/A   Clear
12:53 PM 71.1 °F 43.0 °F 36% 30.03 in 10.0 mi Variable 4.6 mph - N/A   Clear
1:53 PM 73.9 °F 41.0 °F 30% 30.00 in 10.0 mi Variable 3.5 mph - N/A   Clear
2:53 PM 75.9 °F 39.0 °F 26% 29.97 in 10.0 mi North 3.5 mph - N/A   Clear
3:53 PM 75.9 °F 37.9 °F 25% 29.95 in 10.0 mi NNW 5.8 mph - N/A   Clear
4:53 PM 75.9 °F 39.9 °F 27% 29.93 in 10.0 mi North 5.8 mph - N/A   Clear
5:53 PM 75.9 °F 36.0 °F 23% 29.92 in 10.0 mi North 5.8 mph - N/A   Clear
6:53 PM 73.9 °F 37.0 °F 26% 29.91 in 10.0 mi Calm Calm - N/A   Clear
7:53 PM 62.1 °F 43.0 °F 50% 29.91 in 10.0 mi Calm Calm - N/A   Clear
8:53 PM 57.9 °F 45.0 °F 62% 29.92 in 10.0 mi Calm Calm - N/A   Clear
9:53 PM 57.0 °F 45.0 °F 64% 29.93 in 10.0 mi Calm Calm - N/A   Clear
10:53 PM 54.0 °F 46.9 °F 77% 29.94 in 10.0 mi North 3.5 mph - N/A   Clear
11:53 PM 54.0 °F 45.0 °F 72% 29.94 in 10.0 mi East 4.6 mph - N/A   Clear